WZZ121 LIRN-LIPX

Flight info

Callsign WZZ121
Flight time 0h 55m
Altitude 34000
Route ALAXI7G/06 ALAXI DCT INSOX DCT RITEB DCT AMTEL DCT LUTOR DCT BOA Y72 XUBKA
Aircraft A321/M-SDE3FGHIRWY/LB1

Departure

Time 2026-04-23 16:48
Airport Naples International Airport (LIRN)

Arrival

Time 2026-04-23 17:44
Airport Verona Villafranca Valerio Catullo Airport (LIPX)
Time Latitude Longitude Altitude Speed Heading
2026-04-23 16:12 40.87889 14.28228 292 ft 0 kts 187°
2026-04-23 16:37 40.87897 14.28229 292 ft 3 kts 187°
2026-04-23 16:37 40.87916 14.28232 293 ft 3 kts 187°
2026-04-23 16:37 40.87935 14.28237 296 ft 3 kts 219°
2026-04-23 16:37 40.87953 14.28246 295 ft 3 kts 155°
2026-04-23 16:38 40.87966 14.28229 295 ft 3 kts 93°
2026-04-23 16:38 40.87963 14.28205 296 ft 3 kts 57°
2026-04-23 16:38 40.87951 14.28185 297 ft 3 kts 45°
2026-04-23 16:38 40.87941 14.28171 295 ft 0 kts 35°
2026-04-23 16:42 40.87947 14.28174 295 ft 1 kts 16°
2026-04-23 16:42 40.87951 14.28169 294 ft 1 kts 323°
2026-04-23 16:43 40.87956 14.28156 297 ft 3 kts 300°
2026-04-23 16:43 40.87955 14.28123 296 ft 4 kts 254°
2026-04-23 16:43 40.87939 14.28090 296 ft 4 kts 235°
2026-04-23 16:43 40.87924 14.28063 297 ft 3 kts 232°
2026-04-23 16:44 40.87911 14.28041 298 ft 3 kts 232°
2026-04-23 16:44 40.87885 14.28001 298 ft 11 kts 229°
2026-04-23 16:44 40.87855 14.27912 301 ft 10 kts 281°
2026-04-23 16:44 40.87899 14.27847 300 ft 6 kts 322°
2026-04-23 16:45 40.87900 14.27845 300 ft 0 kts 322°
2026-04-23 16:46 40.87901 14.27844 300 ft 1 kts 322°
2026-04-23 16:47 40.87914 14.27831 301 ft 5 kts 322°
2026-04-23 16:47 40.87961 14.27794 299 ft 11 kts 348°
2026-04-23 16:47 40.88033 14.27869 298 ft 17 kts 57°
2026-04-23 16:47 40.88174 14.28165 291 ft 72 kts 57°
2026-04-23 16:48 40.88562 14.28977 270 ft 135 kts 57°
2026-04-23 16:48 40.89113 14.30114 717 ft 146 kts 54°
2026-04-23 16:48 40.89663 14.31259 1423 ft 146 kts 60°
2026-04-23 16:48 40.90187 14.32407 2150 ft 146 kts 56°
2026-04-23 16:49 40.90553 14.33195 2375 ft 158 kts 55°
2026-04-23 16:49 40.91386 14.34941 2816 ft 179 kts 54°
2026-04-23 16:49 40.92099 14.36368 3181 ft 192 kts 53°
2026-04-23 16:49 40.92997 14.37749 3444 ft 210 kts 32°
2026-04-23 16:50 40.94458 14.38104 3840 ft 226 kts 355°
2026-04-23 16:50 40.96070 14.37659 4273 ft 242 kts 352°
2026-04-23 16:50 40.97731 14.37198 5019 ft 245 kts 351°
2026-04-23 16:50 40.99417 14.36745 5758 ft 248 kts 351°
2026-04-23 16:51 41.01101 14.36302 6470 ft 252 kts 351°
2026-04-23 16:51 41.02831 14.35853 7209 ft 254 kts 352°
2026-04-23 16:51 41.04576 14.35406 7923 ft 256 kts 351°
2026-04-23 16:51 41.06334 14.34955 8656 ft 258 kts 351°
2026-04-23 16:52 41.08111 14.34502 9353 ft 261 kts 351°
2026-04-23 16:52 41.09915 14.34024 9979 ft 268 kts 347°
2026-04-23 16:52 41.11612 14.32920 10486 ft 283 kts 326°
2026-04-23 16:52 41.13045 14.30951 10628 ft 309 kts 315°
2026-04-23 16:53 41.14492 14.28713 10745 ft 331 kts 314°
2026-04-23 16:53 41.16006 14.26317 11051 ft 344 kts 313°
2026-04-23 16:53 41.17546 14.23856 11631 ft 349 kts 313°
2026-04-23 16:53 41.19108 14.21364 12186 ft 353 kts 314°
2026-04-23 16:54 41.20691 14.18852 12797 ft 356 kts 314°
2026-04-23 16:54 41.22270 14.16355 13404 ft 360 kts 314°
2026-04-23 16:54 41.23890 14.13801 13979 ft 363 kts 314°
2026-04-23 16:54 41.25525 14.11227 14529 ft 366 kts 315°
2026-04-23 16:55 41.27176 14.08625 15086 ft 369 kts 315°
2026-04-23 16:55 41.28840 14.06004 15641 ft 373 kts 315°
2026-04-23 16:55 41.30524 14.03349 16216 ft 376 kts 315°
2026-04-23 16:55 41.32217 14.00678 16786 ft 379 kts 315°
2026-04-23 16:56 41.33926 13.97981 17341 ft 383 kts 315°
2026-04-23 16:56 41.35649 13.95259 17895 ft 386 kts 315°
2026-04-23 16:56 41.37390 13.92504 18405 ft 390 kts 315°
2026-04-23 16:56 41.39118 13.89766 18896 ft 393 kts 315°
2026-04-23 16:57 41.40885 13.86967 19365 ft 396 kts 315°
2026-04-23 16:57 41.42665 13.84143 19821 ft 399 kts 315°
2026-04-23 16:57 41.44457 13.81295 20286 ft 403 kts 315°
2026-04-23 16:57 41.46263 13.78415 20745 ft 406 kts 315°
2026-04-23 16:58 41.48082 13.75509 21175 ft 410 kts 315°
2026-04-23 16:58 41.49920 13.72575 21598 ft 413 kts 315°
2026-04-23 16:58 41.51774 13.69619 21999 ft 417 kts 315°
2026-04-23 16:58 41.53641 13.66641 22405 ft 420 kts 315°
2026-04-23 16:59 41.55524 13.63636 22812 ft 424 kts 315°
2026-04-23 16:59 41.57421 13.60605 23212 ft 426 kts 315°
2026-04-23 16:59 41.59328 13.57556 23572 ft 429 kts 315°
2026-04-23 16:59 41.61251 13.54478 23891 ft 432 kts 315°
2026-04-23 17:00 41.62530 13.52426 24083 ft 434 kts 315°
2026-04-23 17:00 41.65119 13.48256 24547 ft 437 kts 315°
2026-04-23 17:00 41.67063 13.45119 24883 ft 439 kts 315°
2026-04-23 17:00 41.69021 13.41962 25211 ft 442 kts 315°
2026-04-23 17:01 41.70987 13.38790 25535 ft 444 kts 315°
2026-04-23 17:01 41.72963 13.35601 25859 ft 446 kts 315°
2026-04-23 17:01 41.74976 13.32435 26190 ft 447 kts 316°
2026-04-23 17:01 41.77062 13.29340 26524 ft 448 kts 318°
2026-04-23 17:02 41.78474 13.27317 26736 ft 449 kts 319°
2026-04-23 17:02 41.81362 13.23263 27146 ft 451 kts 319°
2026-04-23 17:02 41.83632 13.20463 27410 ft 449 kts 325°
2026-04-23 17:02 41.86014 13.17725 27686 ft 452 kts 324°
2026-04-23 17:03 41.88382 13.14950 28010 ft 454 kts 323°
2026-04-23 17:03 41.90750 13.12129 28319 ft 456 kts 323°
2026-04-23 17:03 41.93121 13.09283 28655 ft 458 kts 323°
2026-04-23 17:03 41.95500 13.06422 28955 ft 460 kts 323°
2026-04-23 17:04 41.97898 13.03545 29242 ft 462 kts 323°
2026-04-23 17:04 42.00301 13.00668 29580 ft 463 kts 323°
2026-04-23 17:04 42.02705 12.97796 30021 ft 462 kts 323°
2026-04-23 17:04 42.05102 12.94932 30391 ft 461 kts 323°
2026-04-23 17:05 42.07498 12.92066 30727 ft 460 kts 323°
2026-04-23 17:05 42.09857 12.89239 31043 ft 460 kts 323°
2026-04-23 17:05 42.12247 12.86376 31375 ft 459 kts 323°
2026-04-23 17:05 42.14637 12.83514 31714 ft 459 kts 323°
2026-04-23 17:06 42.17017 12.80657 32035 ft 459 kts 322°
2026-04-23 17:06 42.19400 12.77788 32367 ft 458 kts 322°
2026-04-23 17:06 42.21774 12.74929 32655 ft 458 kts 322°
2026-04-23 17:06 42.24154 12.72062 32945 ft 458 kts 322°
2026-04-23 17:07 42.26531 12.69196 33244 ft 458 kts 322°
2026-04-23 17:07 42.28902 12.66335 33544 ft 457 kts 322°
2026-04-23 17:07 42.31274 12.63470 33842 ft 457 kts 322°
2026-04-23 17:07 42.33640 12.60607 34151 ft 456 kts 322°
2026-04-23 17:08 42.35996 12.57745 34433 ft 455 kts 322°
2026-04-23 17:08 42.38348 12.54886 34705 ft 454 kts 322°
2026-04-23 17:08 42.40693 12.52033 34968 ft 453 kts 322°
2026-04-23 17:08 42.43044 12.49178 35092 ft 453 kts 322°
2026-04-23 17:09 42.47771 12.43437 34688 ft 461 kts 322°
2026-04-23 17:09 42.50160 12.40529 34247 ft 461 kts 322°
2026-04-23 17:09 42.52572 12.37589 34084 ft 468 kts 321°
2026-04-23 17:10 42.57417 12.31668 34139 ft 474 kts 322°
2026-04-23 17:10 42.60027 12.28984 34130 ft 467 kts 334°
2026-04-23 17:10 42.62977 12.27226 34154 ft 462 kts 344°
2026-04-23 17:11 42.69050 12.24321 34136 ft 462 kts 344°
2026-04-23 17:11 42.75117 12.21455 34160 ft 462 kts 344°
2026-04-23 17:12 42.81177 12.18576 34153 ft 461 kts 344°
2026-04-23 17:12 42.87228 12.15676 34158 ft 460 kts 344°
2026-04-23 17:13 42.93268 12.12767 34163 ft 460 kts 344°
2026-04-23 17:13 42.99315 12.09863 34164 ft 460 kts 344°
2026-04-23 17:14 43.05343 12.06970 34162 ft 459 kts 344°
2026-04-23 17:14 43.11360 12.04071 34145 ft 459 kts 343°
2026-04-23 17:15 43.17343 12.01176 34169 ft 459 kts 343°
2026-04-23 17:15 43.23361 11.98271 34172 ft 458 kts 343°
2026-04-23 17:16 43.29369 11.95368 34173 ft 457 kts 343°
2026-04-23 17:16 43.34355 11.92938 34173 ft 457 kts 343°
2026-04-23 17:17 43.40351 11.90008 34175 ft 457 kts 343°
2026-04-23 17:17 43.46344 11.87078 34174 ft 457 kts 343°
2026-04-23 17:18 43.55341 11.82666 34174 ft 457 kts 343°
2026-04-23 17:19 43.61297 11.79742 34171 ft 457 kts 343°
2026-04-23 17:19 43.67298 11.76796 34175 ft 457 kts 343°
2026-04-23 17:20 43.73288 11.73846 34176 ft 457 kts 343°
2026-04-23 17:21 43.85281 11.67912 34178 ft 457 kts 343°
2026-04-23 17:21 43.94278 11.63457 34174 ft 459 kts 343°
2026-04-23 17:22 44.03259 11.58982 32478 ft 458 kts 343°
2026-04-23 17:23 44.09247 11.55993 30644 ft 463 kts 343°
2026-04-23 17:23 44.12286 11.54477 29633 ft 465 kts 343°
2026-04-23 17:23 44.18395 11.51423 27720 ft 464 kts 343°
2026-04-23 17:24 44.21417 11.49907 27067 ft 459 kts 343°
2026-04-23 17:24 44.24404 11.48401 26413 ft 454 kts 343°
2026-04-23 17:24 44.30294 11.45432 25145 ft 445 kts 343°
2026-04-23 17:25 44.36066 11.42522 23903 ft 437 kts 342°
2026-04-23 17:25 44.38912 11.41084 23213 ft 433 kts 343°
2026-04-23 17:26 44.44525 11.38248 21818 ft 424 kts 342°
2026-04-23 17:26 44.49727 11.34524 20506 ft 422 kts 324°
2026-04-23 17:27 44.54279 11.29477 19170 ft 411 kts 335°
2026-04-23 17:27 44.56933 11.28116 18558 ft 404 kts 348°
2026-04-23 17:27 44.59652 11.27163 17872 ft 401 kts 348°
2026-04-23 17:27 44.62350 11.26230 17244 ft 398 kts 348°
2026-04-23 17:28 44.65030 11.25311 16658 ft 395 kts 348°
2026-04-23 17:28 44.67632 11.24420 16419 ft 383 kts 348°
2026-04-23 17:28 44.70176 11.23549 16278 ft 369 kts 349°
2026-04-23 17:28 44.72621 11.22711 16151 ft 355 kts 349°
2026-04-23 17:29 44.74984 11.21899 15841 ft 346 kts 349°
2026-04-23 17:29 44.77311 11.21101 15412 ft 342 kts 349°
2026-04-23 17:29 44.81898 11.19535 14478 ft 336 kts 349°
2026-04-23 17:30 44.84162 11.18758 14083 ft 331 kts 349°
2026-04-23 17:30 44.88463 11.17263 13827 ft 306 kts 349°
2026-04-23 17:30 44.90492 11.16557 13696 ft 295 kts 349°
2026-04-23 17:31 44.92458 11.15878 13411 ft 289 kts 349°
2026-04-23 17:31 44.94403 11.15214 13046 ft 287 kts 349°
2026-04-23 17:31 44.96337 11.14556 12654 ft 285 kts 349°
2026-04-23 17:31 44.98259 11.13903 12273 ft 284 kts 349°
2026-04-23 17:32 45.00174 11.13251 11884 ft 282 kts 349°
2026-04-23 17:32 45.02069 11.12601 11548 ft 279 kts 349°
2026-04-23 17:32 45.03952 11.11952 11195 ft 278 kts 349°
2026-04-23 17:32 45.05822 11.11306 10853 ft 276 kts 349°
2026-04-23 17:33 45.07684 11.10665 10505 ft 274 kts 349°
2026-04-23 17:33 45.09523 11.09949 10153 ft 275 kts 342°
2026-04-23 17:33 45.11215 11.08765 9795 ft 276 kts 330°
2026-04-23 17:33 45.12723 11.07070 9424 ft 278 kts 318°
2026-04-23 17:34 45.13948 11.04941 9068 ft 280 kts 306°
2026-04-23 17:34 45.14946 11.02570 8721 ft 279 kts 303°
2026-04-23 17:34 45.16909 10.97881 8078 ft 274 kts 303°
2026-04-23 17:35 45.17880 10.95567 7748 ft 273 kts 303°
2026-04-23 17:35 45.19806 10.90969 7092 ft 269 kts 303°
2026-04-23 17:35 45.20756 10.88692 6761 ft 268 kts 303°
2026-04-23 17:36 45.21692 10.86415 6428 ft 267 kts 299°
2026-04-23 17:36 45.22206 10.83899 6080 ft 268 kts 275°
2026-04-23 17:36 45.21999 10.81273 5716 ft 270 kts 252°
2026-04-23 17:36 45.21084 10.78957 5394 ft 270 kts 229°
2026-04-23 17:37 45.19792 10.77057 5176 ft 264 kts 226°
2026-04-23 17:37 45.18529 10.75239 5050 ft 254 kts 227°
2026-04-23 17:37 45.17451 10.71060 4814 ft 222 kts 287°
2026-04-23 17:38 45.18164 10.69213 4673 ft 210 kts 311°
2026-04-23 17:38 45.19311 10.67997 4391 ft 206 kts 335°
2026-04-23 17:38 45.20707 10.67550 4058 ft 208 kts 353°
2026-04-23 17:38 45.22149 10.67357 3698 ft 208 kts 353°
2026-04-23 17:39 45.23577 10.67292 3492 ft 202 kts
2026-04-23 17:39 45.24885 10.67891 3285 ft 197 kts 27°
2026-04-23 17:39 45.25941 10.69120 3053 ft 193 kts 42°
2026-04-23 17:39 45.26870 10.70451 3026 ft 187 kts 44°
2026-04-23 17:40 45.27776 10.71763 3016 ft 185 kts 41°
2026-04-23 17:40 45.28681 10.73071 2998 ft 186 kts 41°
2026-04-23 17:40 45.29577 10.74365 2794 ft 185 kts 41°
2026-04-23 17:40 45.30477 10.75668 2577 ft 186 kts 41°
2026-04-23 17:41 45.31360 10.76946 2324 ft 173 kts 42°
2026-04-23 17:41 45.32984 10.79296 1873 ft 163 kts 42°
2026-04-23 17:41 45.33777 10.80445 1657 ft 162 kts 41°
2026-04-23 17:42 45.35346 10.82718 1227 ft 162 kts 43°
2026-04-23 17:42 45.36130 10.83855 1014 ft 161 kts 43°
2026-04-23 17:42 45.36909 10.84985 768 ft 160 kts 43°
2026-04-23 17:43 45.37686 10.86109 586 ft 159 kts 43°
2026-04-23 17:43 45.38462 10.87240 353 ft 159 kts 45°
2026-04-23 17:43 45.39227 10.88349 241 ft 152 kts 44°
2026-04-23 17:43 45.39882 10.89298 236 ft 116 kts 45°
2026-04-23 17:44 45.40291 10.89889 238 ft 39 kts 45°
2026-04-23 17:44 45.40372 10.90064 236 ft 18 kts 96°
2026-04-23 17:44 45.40368 10.90337 237 ft 9 kts 47°
2026-04-23 17:45 45.40410 10.90398 237 ft 8 kts 46°
2026-04-23 17:45 45.40383 10.90498 237 ft 0 kts 136°